Year,Month,Day,Hour,Minute,Value (Times are PST for temperature in C)
2018,08,09,00,00,22.30
2018,08,09,00,01,22.30
2018,08,09,00,02,22.30
2018,08,09,00,03,22.30
2018,08,09,00,04,22.30
2018,08,09,00,05,22.30
2018,08,09,00,06,22.30
2018,08,09,00,07,22.20
2018,08,09,00,08,22.20
2018,08,09,00,09,22.20
2018,08,09,00,10,22.20
2018,08,09,00,11,22.20
2018,08,09,00,12,22.20
2018,08,09,00,13,22.20
2018,08,09,00,14,22.10
2018,08,09,00,15,22.10
2018,08,09,00,16,22.10
2018,08,09,00,17,22.10
2018,08,09,00,18,22.00
2018,08,09,00,19,22.00
2018,08,09,00,20,22.00
2018,08,09,00,21,21.90
2018,08,09,00,22,21.90
2018,08,09,00,23,21.90
2018,08,09,00,24,21.90
2018,08,09,00,25,21.90
2018,08,09,00,26,21.80
2018,08,09,00,27,21.80
2018,08,09,00,28,21.80
2018,08,09,00,29,21.80
2018,08,09,00,30,21.70
2018,08,09,00,31,21.70
2018,08,09,00,32,21.70
2018,08,09,00,33,21.70
2018,08,09,00,34,21.70
2018,08,09,00,35,21.60
2018,08,09,00,36,21.60
2018,08,09,00,37,21.60
2018,08,09,00,38,21.60
2018,08,09,00,39,21.50
2018,08,09,00,40,21.50
2018,08,09,00,41,21.50
2018,08,09,00,42,21.40
2018,08,09,00,43,21.40
2018,08,09,00,44,21.40
2018,08,09,00,45,21.40
2018,08,09,00,46,21.30
2018,08,09,00,47,21.30
2018,08,09,00,48,21.30
2018,08,09,00,49,21.30
2018,08,09,00,50,21.20
2018,08,09,00,51,21.20
2018,08,09,00,52,21.20
2018,08,09,00,53,21.20
2018,08,09,00,54,21.20
2018,08,09,00,55,21.10
2018,08,09,00,56,21.10
2018,08,09,00,57,21.10
2018,08,09,00,58,21.10
2018,08,09,00,59,21.10
2018,08,09,01,00,21.10
2018,08,09,01,01,21.00
2018,08,09,01,02,21.00
2018,08,09,01,03,21.00
2018,08,09,01,04,20.90
2018,08,09,01,05,20.90
2018,08,09,01,06,20.90
2018,08,09,01,07,20.90
2018,08,09,01,08,20.90
2018,08,09,01,09,20.90
2018,08,09,01,10,20.80
2018,08,09,01,11,20.80
2018,08,09,01,12,20.80
2018,08,09,01,13,20.80
2018,08,09,01,14,20.80
2018,08,09,01,15,20.80
2018,08,09,01,16,20.70
2018,08,09,01,17,20.70
2018,08,09,01,18,20.70
2018,08,09,01,19,20.70
2018,08,09,01,20,20.70
2018,08,09,01,21,20.60
2018,08,09,01,22,20.60
2018,08,09,01,23,20.60
2018,08,09,01,24,20.60
2018,08,09,01,25,20.50
2018,08,09,01,26,20.50
2018,08,09,01,27,20.50
2018,08,09,01,28,20.40
2018,08,09,01,29,20.40
2018,08,09,01,30,20.40
2018,08,09,01,31,20.40
2018,08,09,01,32,20.40
2018,08,09,01,33,20.30
2018,08,09,01,34,20.30
2018,08,09,01,35,20.30
2018,08,09,01,36,20.30
2018,08,09,01,37,20.20
2018,08,09,01,38,20.20
2018,08,09,01,39,20.20
2018,08,09,01,40,20.20
2018,08,09,01,41,20.10
2018,08,09,01,42,20.10
2018,08,09,01,43,20.10
2018,08,09,01,44,20.00
2018,08,09,01,45,20.00
2018,08,09,01,46,19.90
2018,08,09,01,47,19.90
2018,08,09,01,48,19.90
2018,08,09,01,49,19.90
2018,08,09,01,50,19.80
2018,08,09,01,51,19.80
2018,08,09,01,52,19.80
2018,08,09,01,53,19.80
2018,08,09,01,54,19.70
2018,08,09,01,55,19.70
2018,08,09,01,56,19.70
2018,08,09,01,57,19.60
2018,08,09,01,58,19.60
2018,08,09,01,59,19.60
2018,08,09,02,00,19.50
2018,08,09,02,01,19.50
2018,08,09,02,02,19.50
2018,08,09,02,03,19.40
2018,08,09,02,04,19.40
2018,08,09,02,05,19.40
2018,08,09,02,06,19.30
2018,08,09,02,07,19.30
2018,08,09,02,08,19.30
2018,08,09,02,09,19.30
2018,08,09,02,10,19.30
2018,08,09,02,11,19.20
2018,08,09,02,12,19.20
2018,08,09,02,13,19.20
2018,08,09,02,14,19.20
2018,08,09,02,15,19.20
2018,08,09,02,16,19.20
2018,08,09,02,17,19.10
2018,08,09,02,18,19.10
2018,08,09,02,19,19.10
2018,08,09,02,20,19.10
2018,08,09,02,21,19.10
2018,08,09,02,22,19.10
2018,08,09,02,23,19.00
2018,08,09,02,24,19.00
2018,08,09,02,25,19.00
2018,08,09,02,26,18.90
2018,08,09,02,27,18.90
2018,08,09,02,28,18.90
2018,08,09,02,29,18.90
2018,08,09,02,30,18.90
2018,08,09,02,31,18.80
2018,08,09,02,32,18.80
2018,08,09,02,33,18.80
2018,08,09,02,34,18.80
2018,08,09,02,35,18.80
2018,08,09,02,36,18.70
2018,08,09,02,37,18.70
2018,08,09,02,38,18.70
2018,08,09,02,39,18.70
2018,08,09,02,40,18.70
2018,08,09,02,41,18.70
2018,08,09,02,42,18.60
2018,08,09,02,43,18.60
2018,08,09,02,44,18.60
2018,08,09,02,45,18.60
2018,08,09,02,46,18.60
2018,08,09,02,47,18.60
2018,08,09,02,48,18.60
2018,08,09,02,49,18.50
2018,08,09,02,50,18.50
2018,08,09,02,51,18.50
2018,08,09,02,52,18.50
2018,08,09,02,53,18.40
2018,08,09,02,54,18.40
2018,08,09,02,55,18.40
2018,08,09,02,56,18.40
2018,08,09,02,57,18.30
2018,08,09,02,58,18.30
2018,08,09,02,59,18.30
2018,08,09,03,00,18.30
2018,08,09,03,01,18.20
2018,08,09,03,02,18.20
2018,08,09,03,03,18.20
2018,08,09,03,04,18.20
2018,08,09,03,05,18.20
2018,08,09,03,06,18.10
2018,08,09,03,07,18.10
2018,08,09,03,08,18.10
2018,08,09,03,09,18.10
2018,08,09,03,10,18.10
2018,08,09,03,11,18.10
2018,08,09,03,12,18.10
2018,08,09,03,13,18.00
2018,08,09,03,14,18.00
2018,08,09,03,15,18.00
2018,08,09,03,16,18.00
2018,08,09,03,17,18.00
2018,08,09,03,18,18.00
2018,08,09,03,19,17.90
2018,08,09,03,20,17.90
2018,08,09,03,21,17.90
2018,08,09,03,22,17.90
2018,08,09,03,23,17.90
2018,08,09,03,24,17.90
2018,08,09,03,25,17.90
2018,08,09,03,26,17.90
2018,08,09,03,27,17.80
2018,08,09,03,28,17.80
2018,08,09,03,29,17.80
2018,08,09,03,30,17.80
2018,08,09,03,31,17.80
2018,08,09,03,32,17.80
2018,08,09,03,33,17.80
2018,08,09,03,34,17.70
2018,08,09,03,35,17.70
2018,08,09,03,36,17.70
2018,08,09,03,37,17.70
2018,08,09,03,38,17.70
2018,08,09,03,39,17.70
2018,08,09,03,40,17.70
2018,08,09,03,41,17.70
2018,08,09,03,42,17.60
2018,08,09,03,43,17.60
2018,08,09,03,44,17.60
2018,08,09,03,45,17.60
2018,08,09,03,46,17.60
2018,08,09,03,47,17.60
2018,08,09,03,48,17.60
2018,08,09,03,49,17.60
2018,08,09,03,50,17.60
2018,08,09,03,51,17.60
2018,08,09,03,52,17.50
2018,08,09,03,53,17.50
2018,08,09,03,54,17.50
2018,08,09,03,55,17.50
2018,08,09,03,56,17.50
2018,08,09,03,57,17.50
2018,08,09,03,58,17.50
2018,08,09,03,59,17.50
2018,08,09,04,00,17.40
2018,08,09,04,01,17.40
2018,08,09,04,02,17.40
2018,08,09,04,03,17.40
2018,08,09,04,04,17.40
2018,08,09,04,05,17.40
2018,08,09,04,06,17.40
2018,08,09,04,07,17.40
2018,08,09,04,08,17.40
2018,08,09,04,09,17.40
2018,08,09,04,10,17.40
2018,08,09,04,11,17.30
2018,08,09,04,12,17.30
2018,08,09,04,13,17.30
2018,08,09,04,14,17.30
2018,08,09,04,15,17.30
2018,08,09,04,16,17.30
2018,08,09,04,17,17.30
2018,08,09,04,18,17.30
2018,08,09,04,19,17.30
2018,08,09,04,20,17.30
2018,08,09,04,21,17.30
2018,08,09,04,22,17.20
2018,08,09,04,23,17.20
2018,08,09,04,24,17.20
2018,08,09,04,25,17.20
2018,08,09,04,26,17.20
2018,08,09,04,27,17.20
2018,08,09,04,28,17.10
2018,08,09,04,29,17.10
2018,08,09,04,30,17.10
2018,08,09,04,31,17.10
2018,08,09,04,32,17.00
2018,08,09,04,33,17.00
2018,08,09,04,34,17.00
2018,08,09,04,35,17.00
2018,08,09,04,36,16.90
2018,08,09,04,37,16.90
2018,08,09,04,38,16.90
2018,08,09,04,39,16.90
2018,08,09,04,40,16.90
2018,08,09,04,41,16.90
2018,08,09,04,42,16.90
2018,08,09,04,43,16.90
2018,08,09,04,44,16.80
2018,08,09,04,45,16.80
2018,08,09,04,46,16.80
2018,08,09,04,47,16.80
2018,08,09,04,48,16.80
2018,08,09,04,49,16.80
2018,08,09,04,50,16.80
2018,08,09,04,51,16.80
2018,08,09,04,52,16.80
2018,08,09,04,53,16.80
2018,08,09,04,54,16.80
2018,08,09,04,55,16.80
2018,08,09,04,56,16.80
2018,08,09,04,57,16.80
2018,08,09,04,58,16.80
2018,08,09,04,59,16.80
2018,08,09,05,00,16.70
2018,08,09,05,01,16.70
2018,08,09,05,02,16.70
2018,08,09,05,03,16.70
2018,08,09,05,04,16.60
2018,08,09,05,05,16.60
2018,08,09,05,06,16.60
2018,08,09,05,07,16.60
2018,08,09,05,08,16.50
2018,08,09,05,09,16.50
2018,08,09,05,10,16.50
2018,08,09,05,11,16.50
2018,08,09,05,12,16.40
2018,08,09,05,13,16.40
2018,08,09,05,14,16.40
2018,08,09,05,15,16.40
2018,08,09,05,16,16.30
2018,08,09,05,17,16.30
2018,08,09,05,18,16.30
2018,08,09,05,19,16.30
2018,08,09,05,20,16.30
2018,08,09,05,21,16.30
2018,08,09,05,22,16.20
2018,08,09,05,23,16.20
2018,08,09,05,24,16.20
2018,08,09,05,25,16.20
2018,08,09,05,26,16.20
2018,08,09,05,27,16.10
2018,08,09,05,28,16.10
2018,08,09,05,29,16.10
2018,08,09,05,30,16.10
2018,08,09,05,31,16.10
2018,08,09,05,32,16.10
2018,08,09,05,33,16.10
2018,08,09,05,34,16.00
2018,08,09,05,35,16.00
2018,08,09,05,36,16.00
2018,08,09,05,37,16.00
2018,08,09,05,38,16.00
2018,08,09,05,39,15.90
2018,08,09,05,40,15.90
2018,08,09,05,41,15.90
2018,08,09,05,42,15.90
2018,08,09,05,43,15.90
2018,08,09,05,44,15.90
2018,08,09,05,45,15.90
2018,08,09,05,46,15.90
2018,08,09,05,47,15.80
2018,08,09,05,48,15.80
2018,08,09,05,49,15.80
2018,08,09,05,50,15.80
2018,08,09,05,51,15.80
2018,08,09,05,52,15.80
2018,08,09,05,53,15.80
2018,08,09,05,54,15.80
2018,08,09,05,55,15.80
2018,08,09,05,56,15.70
2018,08,09,05,57,15.70
2018,08,09,05,58,15.70
2018,08,09,05,59,15.70
2018,08,09,06,00,15.70
2018,08,09,06,01,15.70
2018,08,09,06,02,15.70
2018,08,09,06,03,15.70
2018,08,09,06,04,15.70
2018,08,09,06,05,15.70
2018,08,09,06,06,15.70
2018,08,09,06,07,15.70
2018,08,09,06,08,15.60
2018,08,09,06,09,15.60
2018,08,09,06,10,15.60
2018,08,09,06,11,15.60
2018,08,09,06,12,15.60
2018,08,09,06,13,15.60
2018,08,09,06,14,15.60
2018,08,09,06,15,15.60
2018,08,09,06,16,15.60
2018,08,09,06,17,15.60
2018,08,09,06,18,15.60
2018,08,09,06,19,15.60
2018,08,09,06,20,15.60
2018,08,09,06,21,15.60
2018,08,09,06,22,15.50
2018,08,09,06,23,15.50
2018,08,09,06,24,15.50
2018,08,09,06,25,15.50
2018,08,09,06,26,15.50
2018,08,09,06,27,15.50
2018,08,09,06,28,15.50
2018,08,09,06,29,15.50
2018,08,09,06,30,15.50
2018,08,09,06,31,15.50
2018,08,09,06,32,15.50
2018,08,09,06,33,15.50
2018,08,09,06,34,15.50
2018,08,09,06,35,15.50
2018,08,09,06,36,15.50
2018,08,09,06,37,15.50
2018,08,09,06,38,15.50
2018,08,09,06,39,15.50
2018,08,09,06,40,15.50
2018,08,09,06,41,15.50
2018,08,09,06,42,15.50
2018,08,09,06,43,15.50
2018,08,09,06,44,15.50
2018,08,09,06,45,15.50
2018,08,09,06,46,15.50
2018,08,09,06,47,15.50
2018,08,09,06,48,15.50
2018,08,09,06,49,15.50
2018,08,09,06,50,15.60
2018,08,09,06,51,15.60
2018,08,09,06,52,15.60
2018,08,09,06,53,15.60
2018,08,09,06,54,15.60
2018,08,09,06,55,15.60
2018,08,09,06,56,15.60
2018,08,09,06,57,15.60
2018,08,09,06,58,15.60
2018,08,09,06,59,15.60
2018,08,09,07,00,15.60
2018,08,09,07,01,15.70
2018,08,09,07,02,15.70
2018,08,09,07,03,15.70
2018,08,09,07,04,15.70
2018,08,09,07,05,15.70
2018,08,09,07,06,15.70
2018,08,09,07,07,15.70
2018,08,09,07,08,15.70
2018,08,09,07,09,15.80
2018,08,09,07,10,15.80
2018,08,09,07,11,15.80
2018,08,09,07,12,15.80
2018,08,09,07,13,15.80
2018,08,09,07,14,15.80
2018,08,09,07,15,15.80
2018,08,09,07,16,15.80
2018,08,09,07,17,15.80
2018,08,09,07,18,15.90
2018,08,09,07,19,15.90
2018,08,09,07,20,15.90
2018,08,09,07,21,15.90
2018,08,09,07,22,15.90
2018,08,09,07,23,15.90
2018,08,09,07,24,15.90
2018,08,09,07,25,15.90
2018,08,09,07,26,16.00
2018,08,09,07,27,16.00
2018,08,09,07,28,16.00
2018,08,09,07,29,16.00
2018,08,09,07,30,16.00
2018,08,09,07,31,16.10
2018,08,09,07,32,16.10
2018,08,09,07,33,16.10
2018,08,09,07,34,16.10
2018,08,09,07,35,16.10
2018,08,09,07,36,16.10
2018,08,09,07,37,16.20
2018,08,09,07,38,16.20
2018,08,09,07,39,16.20
2018,08,09,07,40,16.20
2018,08,09,07,41,16.20
2018,08,09,07,42,16.20
2018,08,09,07,43,16.20
2018,08,09,07,44,16.20
2018,08,09,07,45,16.20
2018,08,09,07,46,16.20
2018,08,09,07,47,16.20
2018,08,09,07,48,16.20
2018,08,09,07,49,16.20
2018,08,09,07,50,16.20
2018,08,09,07,51,16.20
2018,08,09,07,52,16.20
2018,08,09,07,53,16.20
2018,08,09,07,54,16.20
2018,08,09,07,55,16.20
2018,08,09,07,56,16.20
2018,08,09,07,57,16.20
2018,08,09,07,58,16.20
2018,08,09,07,59,16.20
2018,08,09,08,00,16.20
2018,08,09,08,01,16.30
2018,08,09,08,02,16.30
2018,08,09,08,03,16.30
2018,08,09,08,04,16.30
2018,08,09,08,05,16.30
2018,08,09,08,06,16.30
2018,08,09,08,07,16.30
2018,08,09,08,08,16.30
2018,08,09,08,09,16.30
2018,08,09,08,10,16.30
2018,08,09,08,11,16.30
2018,08,09,08,12,16.30
2018,08,09,08,13,16.30
2018,08,09,08,14,16.30
2018,08,09,08,15,16.30
2018,08,09,08,16,16.30
2018,08,09,08,17,16.40
2018,08,09,08,18,16.40
2018,08,09,08,19,16.40
2018,08,09,08,20,16.40
2018,08,09,08,21,16.40
2018,08,09,08,22,16.40
2018,08,09,08,23,16.50
2018,08,09,08,24,16.50
2018,08,09,08,25,16.50
2018,08,09,08,26,16.50
2018,08,09,08,27,16.50
2018,08,09,08,28,16.60
2018,08,09,08,29,16.60
2018,08,09,08,30,16.60
2018,08,09,08,31,16.60
2018,08,09,08,32,16.60
2018,08,09,08,33,16.60
2018,08,09,08,34,16.60
2018,08,09,08,35,16.60
2018,08,09,08,36,16.60
2018,08,09,08,37,16.60
2018,08,09,08,38,16.70
2018,08,09,08,39,16.70
2018,08,09,08,40,16.70
2018,08,09,08,41,16.70
2018,08,09,08,42,16.70
2018,08,09,08,43,16.70
2018,08,09,08,44,16.80
2018,08,09,08,45,16.80
2018,08,09,08,46,16.80
2018,08,09,08,47,16.80
2018,08,09,08,48,16.80
2018,08,09,08,49,16.90
2018,08,09,08,50,16.90
2018,08,09,08,51,16.90
2018,08,09,08,52,17.00
2018,08,09,08,53,17.00
2018,08,09,08,54,17.00
2018,08,09,08,55,17.10
2018,08,09,08,56,17.10
2018,08,09,08,57,17.10
2018,08,09,08,58,17.10
2018,08,09,08,59,17.20
2018,08,09,09,00,17.20
2018,08,09,09,01,17.20
2018,08,09,09,02,17.20
2018,08,09,09,03,17.30
2018,08,09,09,04,17.30
2018,08,09,09,05,17.30
2018,08,09,09,06,17.30
2018,08,09,09,07,17.30
2018,08,09,09,08,17.40
2018,08,09,09,09,17.40
2018,08,09,09,10,17.50
2018,08,09,09,11,17.50
2018,08,09,09,12,17.60
2018,08,09,09,13,17.60
2018,08,09,09,14,17.70
2018,08,09,09,15,17.70
2018,08,09,09,16,17.80
2018,08,09,09,17,17.80
2018,08,09,09,18,17.90
2018,08,09,09,19,17.90
2018,08,09,09,20,18.00
2018,08,09,09,21,18.10
2018,08,09,09,22,18.20
2018,08,09,09,23,18.20
2018,08,09,09,24,18.30
2018,08,09,09,25,18.30
2018,08,09,09,26,18.30
2018,08,09,09,27,18.40
2018,08,09,09,28,18.40
2018,08,09,09,29,18.50
2018,08,09,09,30,18.50
2018,08,09,09,31,18.60
2018,08,09,09,32,18.60
2018,08,09,09,33,18.70
2018,08,09,09,34,18.70
2018,08,09,09,35,18.80
2018,08,09,09,36,18.80
2018,08,09,09,37,18.90
2018,08,09,09,38,18.90
2018,08,09,09,39,19.00
2018,08,09,09,40,19.00
2018,08,09,09,41,19.00
2018,08,09,09,42,19.10
2018,08,09,09,43,19.20
2018,08,09,09,44,19.20
2018,08,09,09,45,19.20
2018,08,09,09,46,19.30
2018,08,09,09,47,19.30
2018,08,09,09,48,19.40
2018,08,09,09,49,19.40
2018,08,09,09,50,19.40
2018,08,09,09,51,19.50
2018,08,09,09,52,19.50
2018,08,09,09,53,19.60
2018,08,09,09,54,19.60
2018,08,09,09,55,19.70
2018,08,09,09,56,19.70
2018,08,09,09,57,19.70
2018,08,09,09,58,19.70
2018,08,09,09,59,19.80
2018,08,09,10,00,19.80
2018,08,09,10,01,19.80
2018,08,09,10,02,19.90
2018,08,09,10,03,20.00
2018,08,09,10,04,20.00
2018,08,09,10,05,20.10
2018,08,09,10,06,20.10
2018,08,09,10,07,20.20
2018,08,09,10,08,20.30
2018,08,09,10,09,20.30
2018,08,09,10,10,20.40
2018,08,09,10,11,20.40
2018,08,09,10,12,20.50
2018,08,09,10,13,20.60
2018,08,09,10,14,20.70
2018,08,09,10,15,20.80
2018,08,09,10,16,20.90
2018,08,09,10,17,20.90
2018,08,09,10,18,21.00
2018,08,09,10,19,21.10
2018,08,09,10,20,21.10
2018,08,09,10,21,21.20
2018,08,09,10,22,21.20
2018,08,09,10,23,21.30
2018,08,09,10,24,21.30
2018,08,09,10,25,21.30
2018,08,09,10,26,21.40
2018,08,09,10,27,21.40
2018,08,09,10,28,21.40
2018,08,09,10,29,21.40
2018,08,09,10,30,21.50
2018,08,09,10,31,21.50
2018,08,09,10,32,21.50
2018,08,09,10,33,21.60
2018,08,09,10,34,21.60
2018,08,09,10,35,21.60
2018,08,09,10,36,21.70
2018,08,09,10,37,21.70
2018,08,09,10,38,21.70
2018,08,09,10,39,21.80
2018,08,09,10,40,21.80
2018,08,09,10,41,21.90
2018,08,09,10,42,21.90
2018,08,09,10,43,21.90
2018,08,09,10,44,22.00
2018,08,09,10,45,22.00
2018,08,09,10,46,22.10
2018,08,09,10,47,22.10
2018,08,09,10,48,22.20
2018,08,09,10,49,22.20
2018,08,09,10,50,22.20
2018,08,09,10,51,22.30
2018,08,09,10,52,22.30
2018,08,09,10,53,22.30
2018,08,09,10,54,22.30
2018,08,09,10,55,22.40
2018,08,09,10,56,22.40
2018,08,09,10,57,22.40
2018,08,09,10,58,22.40
2018,08,09,10,59,22.50
2018,08,09,11,00,22.50
2018,08,09,11,01,22.50
2018,08,09,11,02,22.60
2018,08,09,11,03,22.60
2018,08,09,11,04,22.60
2018,08,09,11,05,22.60
2018,08,09,11,06,22.70
2018,08,09,11,07,22.70
2018,08,09,11,08,22.70
2018,08,09,11,09,22.70
2018,08,09,11,10,22.70
2018,08,09,11,11,22.80
2018,08,09,11,12,22.80
2018,08,09,11,13,22.80
2018,08,09,11,14,22.80
2018,08,09,11,15,22.90
2018,08,09,11,16,22.90
2018,08,09,11,17,22.90
2018,08,09,11,18,22.90
2018,08,09,11,19,23.00
2018,08,09,11,20,23.00
2018,08,09,11,21,23.10
2018,08,09,11,22,23.10
2018,08,09,11,23,23.10
2018,08,09,11,24,23.20
2018,08,09,11,25,23.20
2018,08,09,11,26,23.20
2018,08,09,11,27,23.30
2018,08,09,11,28,23.30
2018,08,09,11,29,23.30
2018,08,09,11,30,23.30
2018,08,09,11,31,23.30
2018,08,09,11,32,23.40
2018,08,09,11,33,23.40
2018,08,09,11,34,23.40
2018,08,09,11,35,23.40
2018,08,09,11,36,23.50
2018,08,09,11,37,23.50
2018,08,09,11,38,23.50
2018,08,09,11,39,23.60
2018,08,09,11,40,23.60
2018,08,09,11,41,23.60
2018,08,09,11,42,23.70
2018,08,09,11,43,23.70
2018,08,09,11,44,23.70
2018,08,09,11,45,23.70
2018,08,09,11,46,23.70
2018,08,09,11,47,23.80
2018,08,09,11,48,23.80
2018,08,09,11,49,23.80
2018,08,09,11,50,23.80
2018,08,09,11,51,23.80
2018,08,09,11,52,23.90
2018,08,09,11,53,23.90
2018,08,09,11,54,23.90
2018,08,09,11,55,24.00
2018,08,09,11,56,24.00
2018,08,09,11,57,24.10
2018,08,09,11,58,24.10
2018,08,09,11,59,24.10
2018,08,09,12,00,24.20
2018,08,09,12,01,24.20
2018,08,09,12,02,24.20
2018,08,09,12,03,24.30
2018,08,09,12,04,24.30
2018,08,09,12,05,24.30
2018,08,09,12,06,24.30
2018,08,09,12,07,24.30
2018,08,09,12,08,24.40
2018,08,09,12,09,24.40
2018,08,09,12,10,24.40
2018,08,09,12,11,24.50
2018,08,09,12,12,24.50
2018,08,09,12,13,24.50
2018,08,09,12,14,24.60
2018,08,09,12,15,24.60
2018,08,09,12,16,24.60
2018,08,09,12,17,24.70
2018,08,09,12,18,24.70
2018,08,09,12,19,24.70
2018,08,09,12,20,24.70
2018,08,09,12,21,24.70
2018,08,09,12,22,24.80
2018,08,09,12,23,24.80
2018,08,09,12,24,24.80
2018,08,09,12,25,24.90
2018,08,09,12,26,24.90
2018,08,09,12,27,24.90
2018,08,09,12,28,25.00
2018,08,09,12,29,25.10
2018,08,09,12,30,25.10
2018,08,09,12,31,25.20
2018,08,09,12,32,25.20
2018,08,09,12,33,25.30
2018,08,09,12,34,25.40
2018,08,09,12,35,25.40
2018,08,09,12,36,25.50
2018,08,09,12,37,25.60
2018,08,09,12,38,25.70
2018,08,09,12,39,25.80
2018,08,09,12,40,25.90
2018,08,09,12,41,26.00
2018,08,09,12,42,26.00
2018,08,09,12,43,26.10
2018,08,09,12,44,26.10
2018,08,09,12,45,26.10
2018,08,09,12,46,26.10
2018,08,09,12,47,26.20
2018,08,09,12,48,26.20
2018,08,09,12,49,26.20
2018,08,09,12,50,26.20
2018,08,09,12,51,26.20
2018,08,09,12,52,26.20
2018,08,09,12,53,26.20
2018,08,09,12,54,26.30
2018,08,09,12,55,26.30
2018,08,09,12,56,26.30
2018,08,09,12,57,26.30
2018,08,09,12,58,26.20
2018,08,09,12,59,26.20
2018,08,09,13,00,26.20
2018,08,09,13,01,26.30
2018,08,09,13,02,26.30
2018,08,09,13,03,26.30
2018,08,09,13,04,26.30
2018,08,09,13,05,26.30
2018,08,09,13,06,26.30
2018,08,09,13,07,26.30
2018,08,09,13,08,26.30
2018,08,09,13,09,26.30
2018,08,09,13,10,26.40
2018,08,09,13,11,26.40
2018,08,09,13,12,26.40
2018,08,09,13,13,26.40
2018,08,09,13,14,26.40
2018,08,09,13,15,26.40
2018,08,09,13,16,26.40
2018,08,09,13,17,26.40
2018,08,09,13,18,26.40
2018,08,09,13,19,26.50
2018,08,09,13,20,26.50
2018,08,09,13,21,26.60
2018,08,09,13,22,26.60
2018,08,09,13,23,26.60
2018,08,09,13,24,26.60
2018,08,09,13,25,26.70
2018,08,09,13,26,26.70
2018,08,09,13,27,26.70
2018,08,09,13,28,26.70
2018,08,09,13,29,26.80
2018,08,09,13,30,26.80
2018,08,09,13,31,26.80
2018,08,09,13,32,26.90
2018,08,09,13,33,27.00
2018,08,09,13,34,27.00
2018,08,09,13,35,27.10
2018,08,09,13,36,27.20
2018,08,09,13,37,27.20
2018,08,09,13,38,27.30
2018,08,09,13,39,27.30
2018,08,09,13,40,27.40
2018,08,09,13,41,27.40
2018,08,09,13,42,27.50
2018,08,09,13,43,27.60
2018,08,09,13,44,27.60
2018,08,09,13,45,27.60
2018,08,09,13,46,27.60
2018,08,09,13,47,27.60
2018,08,09,13,48,27.60
2018,08,09,13,49,27.60
2018,08,09,13,50,27.60
2018,08,09,13,51,27.60
2018,08,09,13,52,27.70
2018,08,09,13,53,27.70
2018,08,09,13,54,27.70
2018,08,09,13,55,27.70
2018,08,09,13,56,27.80
2018,08,09,13,57,27.80
2018,08,09,13,58,27.90
2018,08,09,13,59,28.00
2018,08,09,14,00,28.10
2018,08,09,14,01,28.20
2018,08,09,14,02,28.30
2018,08,09,14,03,28.30
2018,08,09,14,04,28.40
2018,08,09,14,05,28.40
2018,08,09,14,06,28.50
2018,08,09,14,07,28.50
2018,08,09,14,08,28.60
2018,08,09,14,09,28.70
2018,08,09,14,10,28.70
2018,08,09,14,11,28.70
2018,08,09,14,12,28.70
2018,08,09,14,13,28.70
2018,08,09,14,14,28.70
2018,08,09,14,15,28.70
2018,08,09,14,16,28.70
2018,08,09,14,17,28.70
2018,08,09,14,18,28.70
2018,08,09,14,19,28.80
2018,08,09,14,20,28.80
2018,08,09,14,21,28.80
2018,08,09,14,22,28.90
2018,08,09,14,23,28.90
2018,08,09,14,24,28.90
2018,08,09,14,25,28.90
2018,08,09,14,26,28.90
2018,08,09,14,27,28.90
2018,08,09,14,28,28.90
2018,08,09,14,29,29.00
2018,08,09,14,30,29.10
2018,08,09,14,31,29.10
2018,08,09,14,32,29.20
2018,08,09,14,33,29.20
2018,08,09,14,34,29.30
2018,08,09,14,35,29.40
2018,08,09,14,36,29.40
2018,08,09,14,37,29.50
2018,08,09,14,38,29.60
2018,08,09,14,39,29.80
2018,08,09,14,40,29.90
2018,08,09,14,41,30.00
2018,08,09,14,42,30.10
2018,08,09,14,43,30.10
2018,08,09,14,44,30.20
2018,08,09,14,45,30.30
2018,08,09,14,46,30.30
2018,08,09,14,47,30.40
2018,08,09,14,48,30.40
2018,08,09,14,49,30.40
2018,08,09,14,50,30.50
2018,08,09,14,51,30.50
2018,08,09,14,52,30.50
2018,08,09,14,53,30.50
2018,08,09,14,54,30.60
2018,08,09,14,55,30.70
2018,08,09,14,56,30.70
2018,08,09,14,57,30.80
2018,08,09,14,58,30.80
2018,08,09,14,59,30.70
2018,08,09,15,00,30.60
2018,08,09,15,01,30.50
2018,08,09,15,02,30.40
2018,08,09,15,03,30.30
2018,08,09,15,04,30.20
2018,08,09,15,05,30.20
2018,08,09,15,06,30.10
2018,08,09,15,07,30.10
2018,08,09,15,08,30.10
2018,08,09,15,09,30.20
2018,08,09,15,10,30.20
2018,08,09,15,11,30.20
2018,08,09,15,12,30.30
2018,08,09,15,13,30.30
2018,08,09,15,14,30.30
2018,08,09,15,15,30.30
2018,08,09,15,16,30.40
2018,08,09,15,17,30.40
2018,08,09,15,18,30.40
2018,08,09,15,19,30.40
2018,08,09,15,20,30.50
2018,08,09,15,21,30.60
2018,08,09,15,22,30.60
2018,08,09,15,23,30.70
2018,08,09,15,24,30.70
2018,08,09,15,25,30.80
2018,08,09,15,26,30.90
2018,08,09,15,27,30.90
2018,08,09,15,28,31.00
2018,08,09,15,29,31.10
2018,08,09,15,30,31.10
2018,08,09,15,31,31.20
2018,08,09,15,32,31.20
2018,08,09,15,33,31.30
2018,08,09,15,34,31.30
2018,08,09,15,35,31.40
2018,08,09,15,36,31.40
2018,08,09,15,37,31.50
2018,08,09,15,38,31.50
2018,08,09,15,39,31.50
2018,08,09,15,40,31.50
2018,08,09,15,41,31.50
2018,08,09,15,42,31.40
2018,08,09,15,43,31.40
2018,08,09,15,44,31.40
2018,08,09,15,45,31.30
2018,08,09,15,46,31.30
2018,08,09,15,47,31.30
2018,08,09,15,48,31.30
2018,08,09,15,49,31.30
2018,08,09,15,50,31.30
2018,08,09,15,51,31.30
2018,08,09,15,52,31.40
2018,08,09,15,53,31.40
2018,08,09,15,54,31.40
2018,08,09,15,55,31.40
2018,08,09,15,56,31.40
2018,08,09,15,57,31.40
2018,08,09,15,58,31.30
2018,08,09,15,59,31.30
2018,08,09,16,00,31.30
2018,08,09,16,01,31.30
2018,08,09,16,02,31.30
2018,08,09,16,03,31.30
2018,08,09,16,04,31.30
2018,08,09,16,05,31.40
2018,08,09,16,06,31.40
2018,08,09,16,07,31.40
2018,08,09,16,08,31.50
2018,08,09,16,09,31.50
2018,08,09,16,10,31.50
2018,08,09,16,11,31.50
2018,08,09,16,12,31.60
2018,08,09,16,13,31.60
2018,08,09,16,14,31.60
2018,08,09,16,15,31.60
2018,08,09,16,16,31.70
2018,08,09,16,17,31.70
2018,08,09,16,18,31.70
2018,08,09,16,19,31.70
2018,08,09,16,20,31.70
2018,08,09,16,21,31.70
2018,08,09,16,22,31.70
2018,08,09,16,23,31.70
2018,08,09,16,24,31.70
2018,08,09,16,25,31.80
2018,08,09,16,26,31.80
2018,08,09,16,27,31.80
2018,08,09,16,28,31.70
2018,08,09,16,29,31.70
2018,08,09,16,30,31.70
2018,08,09,16,31,31.70
2018,08,09,16,32,31.70
2018,08,09,16,33,31.60
2018,08,09,16,34,31.60
2018,08,09,16,35,31.50
2018,08,09,16,36,31.50
2018,08,09,16,37,31.40
2018,08,09,16,38,31.40
2018,08,09,16,39,31.30
2018,08,09,16,40,31.30
2018,08,09,16,41,31.20
2018,08,09,16,42,31.20
2018,08,09,16,43,31.10
2018,08,09,16,44,31.10
2018,08,09,16,45,31.00
2018,08,09,16,46,31.00
2018,08,09,16,47,30.90
2018,08,09,16,48,30.90
2018,08,09,16,49,30.80
2018,08,09,16,50,30.80
2018,08,09,16,51,30.70
2018,08,09,16,52,30.70
2018,08,09,16,53,30.60
2018,08,09,16,54,30.60
2018,08,09,16,55,30.60
2018,08,09,16,56,30.50
2018,08,09,16,57,30.50
2018,08,09,16,58,30.50
2018,08,09,16,59,30.50
2018,08,09,17,00,30.50
2018,08,09,17,01,30.50
2018,08,09,17,02,30.40
2018,08,09,17,03,30.40
2018,08,09,17,04,30.40
2018,08,09,17,05,30.30
2018,08,09,17,06,30.30
2018,08,09,17,07,30.30
2018,08,09,17,08,30.30
2018,08,09,17,09,30.30
2018,08,09,17,10,30.30
2018,08,09,17,11,30.30
2018,08,09,17,12,30.30
2018,08,09,17,13,30.30
2018,08,09,17,14,30.30
2018,08,09,17,15,30.40
2018,08,09,17,16,30.40
2018,08,09,17,17,30.40
2018,08,09,17,18,30.40
2018,08,09,17,19,30.40